Location: Allonne
(49.4086°N, 2.1143°E)
Time: 20:18:57
(UTC+00:00)

In-Cosmos 22 Rocket - Pass Details

Date: 03 February 2023
Orbit: 789 x 888 km, 81.2° (Epoch: 21 March)

Event Time Altitude Azimuth Distance (km) Brightness Sun altitude
Rises 18:30:14 0° 189° (S) 3,467 7.6 -16.4°
Reaches altitude 10° 18:32:40 10° 189° (S) 2,539 6.9 -16.8°
Maximum altitude 18:38:29 89° 106° (ESE) 896 4.3 -17.7°
Drops below altitude 10° 18:44:21 10° 12° (NNE) 2,562 6.5 -18.7°
Sets 18:46:48 0° 13° (NNE) 3,499 7.3 -19.1°
